Location: Unspecified
(0.0000°N, 0.0000°E)
Time: 08:31:45
(UTC+00:00)

S-56A Canister/Altair - All Passes

Search period start: 26 October 2014 00:00
Search period end: 05 November 2014 00:00
Orbit: 632 x 2503 km, 38.9° (Epoch: 25 October)

Date Brightness Start Highest point End Pass type
(mag) Time Alt. Az. Time Alt. Az. Time Alt. Az.
26 Oct - 02:26:05 10° NNW 02:32:33 34° NE 02:37:18 10° E visible
26 Oct - 04:31:48 10° W 04:36:22 26° SW 04:40:13 10° SSE visible
26 Oct - 12:59:22 10° S 13:06:49 24° SE 13:16:18 10° E daylight
26 Oct - 15:01:04 10° SW 15:12:23 83° SE 15:27:25 10° NE daylight
26 Oct - 17:07:46 10° W 17:19:38 37° NW 17:32:56 10° NNE daylight
26 Oct - 19:25:26 10° NW 19:29:16 11° NNW 19:33:02 10° N visible
27 Oct - 01:53:31 10° NNW 02:00:13 30° NNE 02:05:06 10° E visible
27 Oct - 03:58:52 10° WNW 04:04:21 35° SW 04:08:39 10° SSE visible
27 Oct - 12:28:02 10° S 12:34:11 19° SE 12:41:45 10° E daylight
27 Oct - 14:28:51 10° SW 14:39:28 74° SE 14:54:05 10° NE daylight
27 Oct - 16:34:43 10° WSW 16:46:25 41° NW 17:00:11 10° NNE daylight
27 Oct - 18:49:43 10° NW 18:55:47 13° NNW 19:01:51 10° N visible
28 Oct - 01:20:55 10° NNW 01:27:47 26° NNE 01:32:50 10° E night (unlit)
28 Oct - 03:25:57 10° WNW 03:32:18 47° SW 03:36:59 10° SSE visible
28 Oct - 11:57:10 10° SSE 12:01:35 14° SE 12:06:45 10° ESE daylight
28 Oct - 13:56:46 10° SW 14:06:39 64° SE 14:20:38 10° ENE daylight
28 Oct - 16:01:52 10° WSW 16:13:15 45° NW 16:27:19 10° NNE daylight
28 Oct - 18:14:55 10° WNW 18:22:20 15° NNW 18:29:56 10° N visible
29 Oct - 00:48:16 10° NNW 00:55:17 24° NNE 01:00:30 10° E night (unlit)
29 Oct - 02:53:02 10° WNW 03:00:14 62° SW 03:05:16 10° SE visible
29 Oct - 11:28:39 10° SE 11:29:02 10° SE 11:29:24 10° SE daylight
29 Oct - 13:24:47 10° SSW 13:33:57 55° SE 13:47:05 10° ENE daylight
29 Oct - 15:29:10 10° WSW 15:40:08 51° NW 15:54:21 10° NNE daylight
29 Oct - 17:40:38 10° WNW 17:48:55 17° NNW 17:57:40 10° N daylight
30 Oct - 00:15:34 10° NNW 00:22:41 22° NNE 00:28:04 10° ENE night (unlit)
30 Oct - 02:20:07 10° NW 02:28:05 79° SW 02:33:28 10° SE visible
30 Oct - 12:52:54 10° SSW 13:01:20 46° SE 13:13:26 10° ENE daylight
30 Oct - 14:56:37 10° WSW 15:07:06 56° NW 15:21:18 10° NE daylight
30 Oct - 17:06:44 10° WNW 17:15:33 20° NNW 17:25:12 10° NNE daylight
30 Oct - 23:42:49 10° NNW 23:49:59 20° NNE 23:55:32 10° ENE night (unlit)
31 Oct - 01:47:10 10° NW 01:55:53 85° NE 02:01:37 10° SE visible
31 Oct - 03:57:44 10° WSW 03:59:20 11° SW 04:00:50 10° SSW visible
31 Oct - 12:21:09 10° SSW 12:28:49 38° SE 12:39:42 10° ENE daylight
31 Oct - 14:24:13 10° WSW 14:34:09 63° NW 14:48:10 10° NE daylight
31 Oct - 16:33:09 10° WNW 16:42:13 22° NNW 16:52:34 10° NNE daylight
31 Oct - 23:10:03 10° NNW 23:17:12 19° NNE 23:22:51 10° ENE night (unlit)
01 Nov - 01:14:11 10° NW 01:23:35 72° NE 01:29:41 10° ESE night (unlit)
01 Nov - 03:23:17 10° W 03:27:11 16° SW 03:30:29 10° S visible
01 Nov - 11:49:33 10° SSW 11:56:22 31° SE 12:05:51 10° ENE daylight
01 Nov - 13:51:55 10° WSW 14:01:17 71° NW 14:14:59 10° NE daylight
01 Nov - 15:59:49 10° W 16:08:58 24° NNW 16:19:49 10° NNE daylight
01 Nov - 22:37:16 10° N 22:44:18 17° NNE 22:50:02 10° ENE night (unlit)
02 Nov - 00:41:11 10° NW 00:51:11 61° NE 00:57:41 10° ESE night (unlit)
02 Nov - 02:49:31 10° W 02:55:04 22° SW 02:59:23 10° S visible
02 Nov - 11:18:06 10° S 11:24:00 24° SE 11:31:53 10° E daylight
02 Nov - 13:19:45 10° SW 13:28:32 79° NW 13:41:45 10° NE daylight
02 Nov - 15:26:43 10° W 15:35:47 27° NNW 15:46:58 10° NNE daylight
02 Nov - 22:04:28 10° N 22:11:19 16° NNE 22:17:02 10° ENE visible
03 Nov - 00:08:10 10° NW 00:18:41 53° NE 00:25:36 10° ESE night (unlit)
03 Nov - 02:15:57 10° WNW 02:22:56 29° SW 02:28:01 10° SSE visible
03 Nov - 10:46:53 10° S 10:51:40 19° SE 10:57:43 10° E daylight
03 Nov - 12:47:41 10° SW 12:55:53 90° NW 13:08:28 10° NE daylight
03 Nov - 14:53:50 10° W 15:02:41 29° NNW 15:14:04 10° NNE daylight
03 Nov - 21:31:43 10° N 21:38:13 15° NNE 21:43:50 10° NE visible
03 Nov - 23:35:08 10° NNW 23:46:06 47° NE 23:53:26 10° ESE night (unlit)
04 Nov - 01:42:28 10° WNW 01:50:45 38° SW 01:56:30 10° SSE night (unlit)
04 Nov - 10:16:08 10° SSE 10:19:23 13° SE 10:23:08 10° ESE daylight
04 Nov - 12:15:43 10° SW 12:23:20 79° SE 12:35:09 10° NE daylight
04 Nov - 14:21:06 10° W 14:29:40 32° NNW 14:41:06 10° NNE daylight
04 Nov - 16:36:34 10° NNW 16:39:18 11° NNW 16:42:08 10° N daylight
04 Nov - 20:59:01 10° N 21:05:02 14° NNE 21:10:22 10° NE visible
04 Nov - 23:02:06 10° NNW 23:13:24 42° NE 23:21:10 10° ESE night (unlit)
